ROA255 SCEL-SCBA

Flight info

Callsign ROA255
Flight time 1h 55m
Altitude 35000
Route LINER6C LINER UQ805 DOTGU UT102 UDOVI UDOVI3D
Aircraft A320/M-SDE3FGHIRWY/LB1

Departure

Time 2026-05-05 02:28
Airport Comodoro Arturo Merino Benítez International Airport (SCEL)

Arrival

Time 2026-05-05 04:24
Airport Balmaceda Airport (SCBA)
Time Latitude Longitude Altitude Speed Heading
2026-05-05 01:43 -33.39745 -70.79828 1565 ft 0 kts 358°
2026-05-05 02:15 -33.39747 -70.79827 1565 ft 2 kts 358°
2026-05-05 02:15 -33.39764 -70.79827 1565 ft 2 kts 358°
2026-05-05 02:16 -33.39782 -70.79826 1565 ft 2 kts 358°
2026-05-05 02:16 -33.39799 -70.79822 1565 ft 3 kts 323°
2026-05-05 02:16 -33.39812 -70.79807 1565 ft 3 kts 303°
2026-05-05 02:16 -33.39819 -70.79788 1565 ft 2 kts 271°
2026-05-05 02:17 -33.39819 -70.79787 1565 ft 0 kts 271°
2026-05-05 02:19 -33.39820 -70.79796 1565 ft 2 kts 263°
2026-05-05 02:19 -33.39824 -70.79835 1565 ft 7 kts 263°
2026-05-05 02:19 -33.39830 -70.79903 1565 ft 9 kts 263°
2026-05-05 02:19 -33.39835 -70.79979 1565 ft 9 kts 267°
2026-05-05 02:20 -33.39804 -70.80024 1566 ft 8 kts 344°
2026-05-05 02:20 -33.39731 -70.80033 1566 ft 13 kts 357°
2026-05-05 02:20 -33.39615 -70.80038 1566 ft 19 kts 358°
2026-05-05 02:20 -33.39479 -70.80047 1566 ft 20 kts 358°
2026-05-05 02:21 -33.39335 -70.80055 1566 ft 21 kts 359°
2026-05-05 02:21 -33.39222 -70.80059 1566 ft 16 kts 357°
2026-05-05 02:21 -33.39106 -70.80068 1566 ft 17 kts 356°
2026-05-05 02:21 -33.38987 -70.80074 1567 ft 17 kts 358°
2026-05-05 02:22 -33.38864 -70.80081 1567 ft 18 kts 358°
2026-05-05 02:22 -33.38736 -70.80087 1567 ft 19 kts 357°
2026-05-05 02:22 -33.38604 -70.80094 1567 ft 19 kts 358°
2026-05-05 02:22 -33.38469 -70.80102 1567 ft 20 kts 358°
2026-05-05 02:23 -33.38328 -70.80109 1566 ft 20 kts 357°
2026-05-05 02:23 -33.38278 -70.80112 1566 ft 8 kts 358°
2026-05-05 02:23 -33.38189 -70.80115 1566 ft 17 kts 359°
2026-05-05 02:23 -33.38068 -70.80122 1566 ft 10 kts 354°
2026-05-05 02:24 -33.37965 -70.80130 1566 ft 19 kts 358°
2026-05-05 02:24 -33.37808 -70.80134 1566 ft 25 kts 357°
2026-05-05 02:24 -33.37688 -70.80144 1566 ft 16 kts 357°
2026-05-05 02:24 -33.37578 -70.80149 1566 ft 16 kts 356°
2026-05-05 02:25 -33.37461 -70.80157 1566 ft 17 kts 355°
2026-05-05 02:25 -33.37340 -70.80169 1567 ft 18 kts 357°
2026-05-05 02:25 -33.37247 -70.80166 1567 ft 11 kts
2026-05-05 02:25 -33.37177 -70.80168 1567 ft 9 kts 353°
2026-05-05 02:26 -33.37127 -70.80197 1567 ft 7 kts 319°
2026-05-05 02:26 -33.37108 -70.80227 1568 ft 2 kts 301°
2026-05-05 02:26 -33.37105 -70.80234 1568 ft 2 kts 295°
2026-05-05 02:26 -33.37100 -70.80287 1571 ft 11 kts 266°
2026-05-05 02:27 -33.37141 -70.80363 1574 ft 10 kts 213°
2026-05-05 02:27 -33.37195 -70.80375 1573 ft 0 kts 176°
2026-05-05 02:27 -33.37251 -70.80371 1573 ft 26 kts 177°
2026-05-05 02:28 -33.37656 -70.80350 1572 ft 91 kts 178°
2026-05-05 02:28 -33.38175 -70.80319 1572 ft 129 kts 177°
2026-05-05 02:28 -33.39234 -70.80266 1584 ft 173 kts 178°
2026-05-05 02:28 -33.40442 -70.80218 2185 ft 174 kts 178°
2026-05-05 02:29 -33.41729 -70.80153 2504 ft 196 kts 177°
2026-05-05 02:29 -33.43171 -70.80069 2753 ft 220 kts 177°
2026-05-05 02:29 -33.44787 -70.79973 3079 ft 245 kts 177°
2026-05-05 02:29 -33.46596 -70.79868 3534 ft 265 kts 177°
2026-05-05 02:30 -33.48466 -70.79762 4285 ft 272 kts 177°
2026-05-05 02:30 -33.50381 -70.79655 5062 ft 278 kts 177°
2026-05-05 02:30 -33.52339 -70.79550 5788 ft 285 kts 178°
2026-05-05 02:30 -33.54345 -70.79419 6500 ft 292 kts 176°
2026-05-05 02:31 -33.56363 -70.79220 7194 ft 297 kts 175°
2026-05-05 02:31 -33.58432 -70.78987 7950 ft 300 kts 175°
2026-05-05 02:31 -33.60639 -70.78732 8757 ft 304 kts 175°
2026-05-05 02:31 -33.62756 -70.78489 9525 ft 307 kts 175°
2026-05-05 02:32 -33.64900 -70.78245 10241 ft 312 kts 176°
2026-05-05 02:32 -33.67140 -70.77997 10478 ft 335 kts 176°
2026-05-05 02:32 -33.69686 -70.77719 10819 ft 354 kts 176°
2026-05-05 02:32 -33.72048 -70.77463 11376 ft 360 kts 176°
2026-05-05 02:33 -33.74559 -70.77189 12072 ft 363 kts 176°
2026-05-05 02:33 -33.77120 -70.76908 12771 ft 367 kts 177°
2026-05-05 02:33 -33.79667 -70.76630 13470 ft 370 kts 177°
2026-05-05 02:33 -33.82275 -70.76346 14120 ft 373 kts 178°
2026-05-05 02:34 -33.84874 -70.76063 14724 ft 376 kts 178°
2026-05-05 02:34 -33.87460 -70.75780 15335 ft 379 kts 178°
2026-05-05 02:34 -33.90164 -70.75484 15963 ft 382 kts 179°
2026-05-05 02:34 -33.92817 -70.75341 16567 ft 381 kts 187°
2026-05-05 02:35 -33.95443 -70.75694 17175 ft 381 kts 193°
2026-05-05 02:35 -33.98074 -70.76143 17778 ft 383 kts 193°
2026-05-05 02:35 -34.00757 -70.76601 18351 ft 385 kts 193°
2026-05-05 02:35 -34.03414 -70.77052 18874 ft 387 kts 193°
2026-05-05 02:36 -34.06191 -70.77521 19418 ft 389 kts 194°
2026-05-05 02:36 -34.08955 -70.77986 19953 ft 391 kts 194°
2026-05-05 02:36 -34.11658 -70.78441 20453 ft 393 kts 194°
2026-05-05 02:36 -34.14409 -70.78905 20961 ft 395 kts 194°
2026-05-05 02:37 -34.17135 -70.79368 21443 ft 397 kts 195°
2026-05-05 02:37 -34.19875 -70.79836 21953 ft 399 kts 195°
2026-05-05 02:37 -34.22671 -70.80313 22439 ft 401 kts 195°
2026-05-05 02:37 -34.25442 -70.80783 22896 ft 404 kts 195°
2026-05-05 02:38 -34.28239 -70.81254 23375 ft 406 kts 195°
2026-05-05 02:38 -34.31044 -70.81725 23800 ft 408 kts 195°
2026-05-05 02:38 -34.33861 -70.82201 24173 ft 410 kts 195°
2026-05-05 02:38 -34.36694 -70.82680 24539 ft 412 kts 195°
2026-05-05 02:39 -34.38618 -70.83005 24790 ft 414 kts 195°
2026-05-05 02:39 -34.41485 -70.83491 25160 ft 416 kts 195°
2026-05-05 02:39 -34.44321 -70.83974 25519 ft 418 kts 195°
2026-05-05 02:39 -34.47207 -70.84468 25890 ft 420 kts 195°
2026-05-05 02:40 -34.51090 -70.85135 26352 ft 423 kts 195°
2026-05-05 02:40 -34.53029 -70.85466 26594 ft 425 kts 195°
2026-05-05 02:40 -34.55960 -70.85964 26938 ft 427 kts 195°
2026-05-05 02:40 -34.58907 -70.86465 27263 ft 429 kts 195°
2026-05-05 02:41 -34.61871 -70.86971 27603 ft 432 kts 195°
2026-05-05 02:41 -34.64853 -70.87482 27942 ft 434 kts 195°
2026-05-05 02:41 -34.67847 -70.87994 28279 ft 436 kts 195°
2026-05-05 02:41 -34.70861 -70.88510 28610 ft 438 kts 195°
2026-05-05 02:42 -34.73886 -70.89029 28938 ft 441 kts 195°
2026-05-05 02:42 -34.76938 -70.89551 29261 ft 443 kts 195°
2026-05-05 02:42 -34.79999 -70.90072 29570 ft 445 kts 195°
2026-05-05 02:42 -34.83073 -70.90597 29868 ft 447 kts 195°
2026-05-05 02:43 -34.86166 -70.91124 30149 ft 449 kts 195°
2026-05-05 02:43 -34.89266 -70.91655 30397 ft 451 kts 195°
2026-05-05 02:43 -34.92376 -70.92189 30652 ft 453 kts 195°
2026-05-05 02:43 -34.95512 -70.92729 30884 ft 454 kts 195°
2026-05-05 02:44 -34.98639 -70.93266 31181 ft 454 kts 195°
2026-05-05 02:44 -35.01780 -70.93807 31537 ft 453 kts 195°
2026-05-05 02:44 -35.04896 -70.94341 31866 ft 452 kts 195°
2026-05-05 02:44 -35.08016 -70.94875 32220 ft 451 kts 195°
2026-05-05 02:45 -35.11121 -70.95406 32575 ft 450 kts 195°
2026-05-05 02:45 -35.14218 -70.95939 32923 ft 449 kts 196°
2026-05-05 02:45 -35.17307 -70.96477 33273 ft 448 kts 196°
2026-05-05 02:45 -35.20393 -70.97014 33589 ft 448 kts 196°
2026-05-05 02:46 -35.23519 -70.97555 33929 ft 447 kts 196°
2026-05-05 02:46 -35.26602 -70.98093 34219 ft 446 kts 196°
2026-05-05 02:46 -35.29682 -70.98630 34437 ft 446 kts 196°
2026-05-05 02:46 -35.32796 -70.99172 34728 ft 445 kts 196°
2026-05-05 02:47 -35.35823 -70.99696 34948 ft 445 kts 197°
2026-05-05 02:47 -35.41961 -71.00762 35049 ft 439 kts 197°
2026-05-05 02:48 -35.48003 -71.01811 35048 ft 437 kts 197°
2026-05-05 02:48 -35.54189 -71.02895 35041 ft 437 kts 197°
2026-05-05 02:49 -35.60210 -71.03955 35041 ft 436 kts 197°
2026-05-05 02:49 -35.66220 -71.05010 35048 ft 436 kts 197°
2026-05-05 02:50 -35.72182 -71.06054 35051 ft 435 kts 197°
2026-05-05 02:50 -35.78189 -71.07108 35049 ft 435 kts 197°
2026-05-05 02:51 -35.84201 -71.08164 35044 ft 436 kts 197°
2026-05-05 02:51 -35.90186 -71.09218 35038 ft 436 kts 197°
2026-05-05 02:52 -35.96193 -71.10280 35048 ft 436 kts 197°
2026-05-05 02:52 -36.02189 -71.11344 35042 ft 435 kts 197°
2026-05-05 02:53 -36.08197 -71.12410 35045 ft 435 kts 198°
2026-05-05 02:53 -36.14195 -71.13474 35043 ft 435 kts 197°
2026-05-05 02:54 -36.20176 -71.14533 35042 ft 434 kts 198°
2026-05-05 02:54 -36.26165 -71.15600 35042 ft 435 kts 198°
2026-05-05 02:55 -36.32165 -71.16671 35035 ft 435 kts 198°
2026-05-05 02:55 -36.38153 -71.17737 35041 ft 435 kts 198°
2026-05-05 02:56 -36.44148 -71.18801 35035 ft 435 kts 198°
2026-05-05 02:56 -36.50148 -71.19872 35034 ft 435 kts 198°
2026-05-05 02:57 -36.56150 -71.20955 35020 ft 435 kts 198°
2026-05-05 02:57 -36.62151 -71.22036 35029 ft 436 kts 198°
2026-05-05 02:58 -36.68234 -71.23125 35027 ft 435 kts 198°
2026-05-05 02:58 -36.74272 -71.24208 35026 ft 435 kts 198°
2026-05-05 02:59 -36.79245 -71.25102 35022 ft 435 kts 198°
2026-05-05 02:59 -36.85278 -71.26197 35015 ft 435 kts 198°
2026-05-05 03:00 -36.91279 -71.27288 35003 ft 435 kts 198°
2026-05-05 03:00 -36.97400 -71.28399 35008 ft 436 kts 198°
2026-05-05 03:01 -37.03410 -71.29491 35014 ft 436 kts 198°
2026-05-05 03:01 -37.09423 -71.30581 35012 ft 436 kts 198°
2026-05-05 03:02 -37.15431 -71.31671 35013 ft 436 kts 198°
2026-05-05 03:02 -37.21445 -71.32770 35012 ft 436 kts 199°
2026-05-05 03:03 -37.27467 -71.33874 35009 ft 436 kts 199°
2026-05-05 03:03 -37.33473 -71.34974 35009 ft 436 kts 199°
2026-05-05 03:04 -37.39477 -71.36075 35018 ft 437 kts 199°
2026-05-05 03:04 -37.45496 -71.37178 35028 ft 437 kts 199°
2026-05-05 03:05 -37.51508 -71.38287 35020 ft 436 kts 199°
2026-05-05 03:05 -37.57525 -71.39403 35030 ft 437 kts 199°
2026-05-05 03:06 -37.63551 -71.40513 35032 ft 437 kts 199°
2026-05-05 03:06 -37.69581 -71.41627 35039 ft 437 kts 199°
2026-05-05 03:07 -37.75610 -71.42735 35050 ft 437 kts 199°
2026-05-05 03:07 -37.81623 -71.43852 35052 ft 437 kts 199°
2026-05-05 03:08 -37.87643 -71.44967 35058 ft 437 kts 199°
2026-05-05 03:08 -37.93697 -71.46088 35061 ft 437 kts 199°
2026-05-05 03:09 -37.99705 -71.47207 35057 ft 435 kts 199°
2026-05-05 03:09 -38.05704 -71.48327 35053 ft 436 kts 199°
2026-05-05 03:10 -38.11697 -71.49445 35051 ft 435 kts 199°
2026-05-05 03:10 -38.17711 -71.50574 35044 ft 436 kts 199°
2026-05-05 03:11 -38.23707 -71.51706 35057 ft 436 kts 199°
2026-05-05 03:11 -38.29715 -71.52842 35039 ft 436 kts 199°
2026-05-05 03:12 -38.35725 -71.53970 35040 ft 436 kts 199°
2026-05-05 03:12 -38.41734 -71.55095 35040 ft 436 kts 199°
2026-05-05 03:13 -38.47742 -71.56229 35034 ft 436 kts 199°
2026-05-05 03:13 -38.53716 -71.57365 35036 ft 437 kts 199°
2026-05-05 03:14 -38.59771 -71.58513 35030 ft 436 kts 199°
2026-05-05 03:14 -38.65769 -71.59650 35037 ft 437 kts 199°
2026-05-05 03:15 -38.71803 -71.60800 35037 ft 437 kts 199°
2026-05-05 03:15 -38.77822 -71.61950 35027 ft 437 kts 199°
2026-05-05 03:16 -38.83847 -71.63104 35024 ft 437 kts 199°
2026-05-05 03:16 -38.89862 -71.64245 35020 ft 437 kts 199°
2026-05-05 03:17 -38.95893 -71.65396 35020 ft 438 kts 200°
2026-05-05 03:17 -39.01929 -71.66554 35021 ft 438 kts 200°
2026-05-05 03:18 -39.07951 -71.67710 35027 ft 438 kts 200°
2026-05-05 03:18 -39.13971 -71.68872 35023 ft 438 kts 200°
2026-05-05 03:19 -39.22992 -71.70615 35018 ft 437 kts 200°
2026-05-05 03:19 -39.28964 -71.71769 35014 ft 437 kts 200°
2026-05-05 03:20 -39.35017 -71.72947 35011 ft 436 kts 200°
2026-05-05 03:20 -39.41054 -71.74118 35015 ft 436 kts 200°
2026-05-05 03:21 -39.47057 -71.75284 35009 ft 436 kts 200°
2026-05-05 03:21 -39.52905 -71.76415 35008 ft 435 kts 200°
2026-05-05 03:22 -39.57895 -71.77384 35002 ft 435 kts 200°
2026-05-05 03:22 -39.63876 -71.78557 35004 ft 433 kts 200°
2026-05-05 03:23 -39.69807 -71.79724 35005 ft 433 kts 200°
2026-05-05 03:23 -39.75793 -71.80899 35004 ft 433 kts 200°
2026-05-05 03:24 -39.81754 -71.82054 34997 ft 433 kts 200°
2026-05-05 03:24 -39.87706 -71.83223 34995 ft 432 kts 201°
2026-05-05 03:25 -39.93652 -71.84399 34984 ft 431 kts 201°
2026-05-05 03:25 -39.99584 -71.85563 34981 ft 431 kts 201°
2026-05-05 03:26 -40.05515 -71.86738 34981 ft 431 kts 201°
2026-05-05 03:26 -40.11452 -71.87916 34971 ft 431 kts 201°
2026-05-05 03:27 -40.17375 -71.89093 34965 ft 430 kts 201°
2026-05-05 03:27 -40.23301 -71.90280 34961 ft 431 kts 201°
2026-05-05 03:28 -40.29221 -71.91457 34953 ft 430 kts 201°
2026-05-05 03:28 -40.35167 -71.92636 34962 ft 430 kts 201°
2026-05-05 03:29 -40.41084 -71.93817 34967 ft 430 kts 202°
2026-05-05 03:29 -40.46997 -71.95005 34973 ft 430 kts 202°
2026-05-05 03:30 -40.52918 -71.96197 34965 ft 429 kts 201°
2026-05-05 03:30 -40.58830 -71.97385 34964 ft 429 kts 202°
2026-05-05 03:31 -40.64729 -71.98566 34966 ft 429 kts 202°
2026-05-05 03:31 -40.70586 -71.99742 34973 ft 428 kts 202°
2026-05-05 03:32 -40.76518 -72.00942 34982 ft 428 kts 202°
2026-05-05 03:32 -40.82414 -72.02144 34972 ft 427 kts 202°
2026-05-05 03:33 -40.88301 -72.03338 34979 ft 427 kts 202°
2026-05-05 03:33 -40.94113 -72.04518 34972 ft 427 kts 202°
2026-05-05 03:34 -41.00037 -72.05721 34968 ft 426 kts 202°
2026-05-05 03:34 -41.05927 -72.06919 34971 ft 428 kts 202°
2026-05-05 03:35 -41.11797 -72.08109 34976 ft 426 kts 203°
2026-05-05 03:35 -41.17668 -72.09313 34983 ft 428 kts 203°
2026-05-05 03:36 -41.23560 -72.10524 34987 ft 427 kts 203°
2026-05-05 03:36 -41.29440 -72.11722 34973 ft 428 kts 202°
2026-05-05 03:37 -41.35387 -72.12707 34965 ft 431 kts 201°
2026-05-05 03:37 -41.41364 -72.13557 34959 ft 432 kts 200°
2026-05-05 03:38 -41.47343 -72.14434 34962 ft 432 kts 201°
2026-05-05 03:38 -41.53301 -72.15361 34947 ft 431 kts 201°
2026-05-05 03:39 -41.59257 -72.16318 34952 ft 432 kts 201°
2026-05-05 03:39 -41.65271 -72.17269 34964 ft 431 kts 201°
2026-05-05 03:40 -41.71231 -72.18190 34965 ft 431 kts 201°
2026-05-05 03:40 -41.77196 -72.19129 34973 ft 431 kts 201°
2026-05-05 03:41 -41.83160 -72.20061 34965 ft 431 kts 201°
2026-05-05 03:41 -41.89098 -72.20997 34963 ft 429 kts 201°
2026-05-05 03:42 -41.95034 -72.21938 34955 ft 429 kts 202°
2026-05-05 03:42 -42.00970 -72.22875 34955 ft 430 kts 201°
2026-05-05 03:43 -42.06906 -72.23814 34962 ft 430 kts 201°
2026-05-05 03:43 -42.12897 -72.24770 34937 ft 429 kts 201°
2026-05-05 03:44 -42.18829 -72.25716 34943 ft 428 kts 202°
2026-05-05 03:44 -42.24771 -72.26669 34951 ft 430 kts 202°
2026-05-05 03:45 -42.30726 -72.27619 34952 ft 431 kts 202°
2026-05-05 03:45 -42.36691 -72.28556 34948 ft 431 kts 202°
2026-05-05 03:46 -42.42640 -72.29502 34944 ft 430 kts 202°
2026-05-05 03:46 -42.48591 -72.30468 34942 ft 431 kts 202°
2026-05-05 03:47 -42.54553 -72.31430 34948 ft 431 kts 203°
2026-05-05 03:47 -42.60506 -72.32386 34950 ft 431 kts 203°
2026-05-05 03:48 -42.66456 -72.33345 34950 ft 431 kts 203°
2026-05-05 03:48 -42.72417 -72.34311 34953 ft 430 kts 203°
2026-05-05 03:49 -42.78362 -72.35281 34955 ft 431 kts 204°
2026-05-05 03:49 -42.84317 -72.36251 34959 ft 431 kts 203°
2026-05-05 03:50 -42.90264 -72.37216 34955 ft 430 kts 203°
2026-05-05 03:50 -42.95244 -72.38024 34957 ft 430 kts 203°
2026-05-05 03:51 -43.01197 -72.38991 34954 ft 429 kts 204°
2026-05-05 03:51 -43.07111 -72.39970 34955 ft 428 kts 204°
2026-05-05 03:52 -43.12484 -72.40863 34959 ft 429 kts 204°
2026-05-05 03:52 -43.18442 -72.41844 34961 ft 429 kts 204°
2026-05-05 03:53 -43.24331 -72.42810 34953 ft 428 kts 204°
2026-05-05 03:53 -43.30232 -72.43770 34945 ft 427 kts 204°
2026-05-05 03:54 -43.36121 -72.44739 34943 ft 426 kts 204°
2026-05-05 03:54 -43.42006 -72.45718 34946 ft 427 kts 204°
2026-05-05 03:55 -43.47895 -72.46702 34933 ft 424 kts 204°
2026-05-05 03:55 -43.50877 -72.47004 34928 ft 441 kts 196°
2026-05-05 03:55 -43.54008 -72.46561 34938 ft 467 kts 184°
2026-05-05 03:56 -43.60422 -72.44555 34954 ft 474 kts 182°
2026-05-05 03:56 -43.66834 -72.42495 34941 ft 471 kts 182°
2026-05-05 03:57 -43.73212 -72.40472 34944 ft 470 kts 183°
2026-05-05 03:57 -43.79589 -72.38475 34951 ft 470 kts 183°
2026-05-05 03:58 -43.85958 -72.36479 34942 ft 470 kts 183°
2026-05-05 03:58 -43.92348 -72.34462 34948 ft 471 kts 183°
2026-05-05 03:59 -43.98772 -72.32406 34929 ft 470 kts 183°
2026-05-05 03:59 -44.05100 -72.30388 34924 ft 469 kts 183°
2026-05-05 04:00 -44.11483 -72.28360 34927 ft 470 kts 183°
2026-05-05 04:00 -44.17880 -72.26314 34889 ft 468 kts 183°
2026-05-05 04:01 -44.21055 -72.25300 34647 ft 467 kts 183°
2026-05-05 04:01 -44.24225 -72.24285 34410 ft 467 kts 184°
2026-05-05 04:01 -44.27387 -72.23270 34175 ft 467 kts 184°
2026-05-05 04:01 -44.30553 -72.22254 33942 ft 466 kts 184°
2026-05-05 04:02 -44.33710 -72.21243 33681 ft 464 kts 184°
2026-05-05 04:02 -44.36845 -72.20236 33402 ft 461 kts 184°
2026-05-05 04:02 -44.39952 -72.19229 32894 ft 458 kts 183°
2026-05-05 04:02 -44.43047 -72.18226 32329 ft 454 kts 181°
2026-05-05 04:03 -44.46116 -72.17231 31792 ft 452 kts 181°
2026-05-05 04:03 -44.49176 -72.16247 31229 ft 449 kts 180°
2026-05-05 04:03 -44.52215 -72.15264 30697 ft 446 kts 179°
2026-05-05 04:03 -44.55257 -72.14277 30157 ft 442 kts 178°
2026-05-05 04:04 -44.58245 -72.13309 29574 ft 436 kts 178°
2026-05-05 04:04 -44.61135 -72.12357 29084 ft 420 kts 178°
2026-05-05 04:04 -44.63973 -72.11421 28605 ft 416 kts 178°
2026-05-05 04:04 -44.66782 -72.10500 28139 ft 413 kts 178°
2026-05-05 04:05 -44.69577 -72.09589 27664 ft 410 kts 178°
2026-05-05 04:05 -44.72341 -72.08688 27206 ft 405 kts 178°
2026-05-05 04:05 -44.75078 -72.07797 26755 ft 402 kts 178°
2026-05-05 04:05 -44.77802 -72.06912 26302 ft 400 kts 177°
2026-05-05 04:06 -44.80494 -72.06036 25850 ft 396 kts 178°
2026-05-05 04:06 -44.83169 -72.05167 25386 ft 393 kts 178°
2026-05-05 04:06 -44.85817 -72.04306 24925 ft 390 kts 178°
2026-05-05 04:06 -44.88454 -72.03446 24450 ft 388 kts 177°
2026-05-05 04:07 -44.91078 -72.02586 23964 ft 385 kts 177°
2026-05-05 04:07 -44.93693 -72.01730 23482 ft 386 kts 177°
2026-05-05 04:07 -44.96343 -72.00866 22921 ft 383 kts 177°
2026-05-05 04:07 -44.98919 -72.00017 22453 ft 379 kts 176°
2026-05-05 04:08 -45.01482 -71.99174 21963 ft 377 kts 176°
2026-05-05 04:08 -45.04035 -71.98336 21501 ft 374 kts 176°
2026-05-05 04:08 -45.06559 -71.97506 21031 ft 372 kts 176°
2026-05-05 04:08 -45.09070 -71.96679 20574 ft 369 kts 176°
2026-05-05 04:09 -45.11563 -71.95858 20118 ft 366 kts 176°
2026-05-05 04:09 -45.14041 -71.95040 19661 ft 365 kts 176°
2026-05-05 04:09 -45.16513 -71.94222 19204 ft 363 kts 175°
2026-05-05 04:09 -45.18969 -71.93407 18764 ft 362 kts 175°
2026-05-05 04:10 -45.21420 -71.92596 18330 ft 362 kts 175°
2026-05-05 04:10 -45.23860 -71.91791 17880 ft 361 kts 175°
2026-05-05 04:10 -45.26286 -71.90988 17563 ft 354 kts 175°
2026-05-05 04:10 -45.28680 -71.90257 17106 ft 351 kts 176°
2026-05-05 04:11 -45.31090 -71.89601 16654 ft 347 kts 177°
2026-05-05 04:11 -45.33465 -71.88991 16100 ft 343 kts 177°
2026-05-05 04:11 -45.35773 -71.88398 15653 ft 331 kts 177°
2026-05-05 04:11 -45.38017 -71.87809 15254 ft 318 kts 176°
2026-05-05 04:12 -45.40165 -71.87240 14877 ft 310 kts 176°
2026-05-05 04:12 -45.42286 -71.86681 14492 ft 311 kts 176°
2026-05-05 04:12 -45.44413 -71.86117 14114 ft 311 kts 176°
2026-05-05 04:12 -45.46541 -71.85546 13727 ft 312 kts 176°
2026-05-05 04:13 -45.48678 -71.84970 13317 ft 313 kts 176°
2026-05-05 04:13 -45.50813 -71.84392 12916 ft 312 kts 175°
2026-05-05 04:13 -45.52943 -71.83813 12531 ft 311 kts 176°
2026-05-05 04:13 -45.55066 -71.83237 12141 ft 310 kts 176°
2026-05-05 04:14 -45.57188 -71.82661 11735 ft 310 kts 176°
2026-05-05 04:14 -45.59300 -71.82085 11344 ft 309 kts 175°
2026-05-05 04:14 -45.61402 -71.81512 11102 ft 303 kts 176°
2026-05-05 04:14 -45.63443 -71.80951 10937 ft 295 kts 176°
2026-05-05 04:15 -45.65462 -71.80397 10545 ft 295 kts 176°
2026-05-05 04:15 -45.67480 -71.79848 10150 ft 295 kts 176°
2026-05-05 04:15 -45.69474 -71.79302 9718 ft 289 kts 176°
2026-05-05 04:15 -45.71417 -71.78769 9352 ft 280 kts 177°
2026-05-05 04:16 -45.73304 -71.78250 9195 ft 272 kts 177°
2026-05-05 04:16 -45.75137 -71.77749 9061 ft 265 kts 177°
2026-05-05 04:16 -45.76950 -71.77160 8877 ft 272 kts 169°
2026-05-05 04:16 -45.78117 -71.76457 8638 ft 278 kts 159°
2026-05-05 04:17 -45.79720 -71.74860 8269 ft 285 kts 143°
2026-05-05 04:17 -45.81019 -71.72670 7898 ft 292 kts 127°
2026-05-05 04:17 -45.81904 -71.70036 7525 ft 293 kts 110°
2026-05-05 04:17 -45.82339 -71.67221 7159 ft 285 kts 101°
2026-05-05 04:18 -45.82684 -71.64452 6803 ft 279 kts 101°
2026-05-05 04:18 -45.83030 -71.61740 6455 ft 275 kts 101°
2026-05-05 04:18 -45.83374 -71.59058 6099 ft 270 kts 101°
2026-05-05 04:18 -45.83708 -71.56454 5722 ft 259 kts 102°
2026-05-05 04:19 -45.84246 -71.54022 5427 ft 250 kts 123°
2026-05-05 04:19 -45.85256 -71.52121 5115 ft 237 kts 144°
2026-05-05 04:19 -45.86567 -71.50863 4850 ft 212 kts 165°
2026-05-05 04:19 -45.87899 -71.50344 4583 ft 192 kts 184°
2026-05-05 04:20 -45.89163 -71.50396 4328 ft 173 kts 199°
2026-05-05 04:20 -45.90260 -71.50864 4109 ft 157 kts 213°
2026-05-05 04:20 -45.91165 -71.51628 3932 ft 146 kts 226°
2026-05-05 04:20 -45.91885 -71.52603 3724 ft 140 kts 237°
2026-05-05 04:21 -45.92424 -71.53709 3549 ft 132 kts 248°
2026-05-05 04:21 -45.92788 -71.54908 3355 ft 130 kts 258°
2026-05-05 04:21 -45.92977 -71.56162 3188 ft 128 kts 268°
2026-05-05 04:21 -45.92993 -71.57436 3024 ft 128 kts 278°
2026-05-05 04:22 -45.92854 -71.58703 2858 ft 129 kts 283°
2026-05-05 04:22 -45.92697 -71.59968 2687 ft 129 kts 283°
2026-05-05 04:22 -45.92541 -71.61234 2523 ft 130 kts 283°
2026-05-05 04:22 -45.92384 -71.62501 2377 ft 128 kts 284°
2026-05-05 04:23 -45.92230 -71.63759 2238 ft 127 kts 283°
2026-05-05 04:23 -45.92073 -71.65017 2098 ft 128 kts 283°
2026-05-05 04:23 -45.91913 -71.66298 1946 ft 129 kts 281°
2026-05-05 04:23 -45.91762 -71.67560 1798 ft 128 kts 284°
2026-05-05 04:24 -45.91629 -71.68642 1778 ft 77 kts 280°
2026-05-05 04:24 -45.91569 -71.69138 1779 ft 41 kts 279°
2026-05-05 04:24 -45.91548 -71.69314 1782 ft 10 kts 280°
2026-05-05 04:25 -45.91481 -71.69413 1782 ft 8 kts 57°
2026-05-05 04:25 -45.91461 -71.69365 1783 ft 5 kts 59°
2026-05-05 04:25 -45.91445 -71.69326 1784 ft 4 kts 59°
2026-05-05 04:25 -45.91433 -71.69296 1782 ft 3 kts 59°
2026-05-05 04:26 -45.91418 -71.69260 1782 ft 7 kts 59°
2026-05-05 04:26 -45.91385 -71.69215 1782 ft 6 kts 28°
2026-05-05 04:26 -45.91353 -71.69188 1783 ft 5 kts 31°
2026-05-05 04:26 -45.91327 -71.69175 1784 ft 4 kts 354°
2026-05-05 04:27 -45.91302 -71.69219 1782 ft 7 kts 302°
2026-05-05 04:27 -45.91298 -71.69227 1784 ft 0 kts 302°